Hill City, KS

11:48 AM CST on February 23, 2017 (GMT -0600)
Hill City Municipal

Weather History for KHLC - November, 2014

Change the Weather History Date:

Thursday, November 6, 2014

  Actual Average Record
Temperature  
Mean Temperature 46 °F 45 °F  
Max Temperature 62 °F 59 °F 86 °F (1980)
Min Temperature 30 °F 32 °F 8 °F (1959)
Degree Days  
Heating Degree Days 18    
Moisture  
Dew Point 27 °F    
Average Humidity 49    
Maximum Humidity 78    
Minimum Humidity 26    
Precipitation  
Precipitation 0.00 in 0.03 in 0.05 in (2016)
Month to date precipitation T 0.28  
Year to date precipitation 21.43 21.56  
Sea Level Pressure  
Sea Level Pressure 30.37 in    
Wind  
Wind Speed 6 mph (SW)    
Max Wind Speed 9 mph    
Max Gust Speed -    
Visibility 10 miles    
Events      
T = Trace of Precipitation, MM = Missing Value Source: NWS Daily Summary

Daily Weather History Graph

Daily Weather History Graph

Search for Another Location

Airport or City:

Trip Planner

Search our weather history database for the weather conditions in past years. The results will help you decide how hot, cold, wet, or windy it might be!

Date:

Astronomy

Nov. 06, 2014 Rise Set
Actual Time 7:12 AM CST 5:32 PM CST
Civil Twilight 6:44 AM CST 6:00 PM CST
Nautical Twilight 6:12 AM CST 6:32 PM CST
Astronomical Twilight 5:41 AM CST 7:03 PM CST
Moon 5:41 PM CST (11/6) 6:46 AM CST (11/6)
Length of Visible Light 11h 15m
Length of Day
10h 19m
Full, 100% of the Moon is Illuminated
Nov 6
Full
Nov 6
Full
Nov 14
Last Quarter
Nov 22
New
Nov 29
First Quarter

Hourly Weather History & Observations

Time (CST) Temp. Windchill Dew Point Humidity Pressure Visibility Wind Dir Wind Speed Gust Speed Precip Events Conditions
12:53 AM 41.0 °F 36.4 °F 28.0 °F 60% 30.36 in 10.0 mi WSW 6.9 mph - N/A   Clear
1:53 AM 39.0 °F 34.0 °F 28.0 °F 65% 30.37 in 10.0 mi West 6.9 mph - N/A   Clear
2:53 AM 37.0 °F 31.0 °F 28.0 °F 70% 30.39 in 10.0 mi West 8.1 mph - N/A   Clear
3:53 AM 36.0 °F 30.3 °F 27.0 °F 70% 30.40 in 10.0 mi West 6.9 mph - N/A   Clear
4:53 AM 34.0 °F 27.2 °F 27.0 °F 75% 30.41 in 10.0 mi West 8.1 mph - N/A   Clear
5:53 AM 33.1 °F 26.9 °F 27.0 °F 78% 30.45 in 10.0 mi West 6.9 mph - N/A   Clear
6:53 AM 33.1 °F 27.7 °F 27.0 °F 78% 30.47 in 10.0 mi WNW 5.8 mph - N/A   Clear
7:53 AM 34.0 °F 28.8 °F 27.0 °F 75% 30.48 in 10.0 mi NNW 5.8 mph - N/A   Clear
8:53 AM 45.0 °F 41.8 °F 30.0 °F 56% 30.48 in 10.0 mi NNW 5.8 mph - N/A   Clear
9:53 AM 50.0 °F - 26.1 °F 39% 30.48 in 10.0 mi NNE 8.1 mph - N/A   Clear
10:53 AM 52.0 °F - 26.1 °F 37% 30.48 in 10.0 mi East 4.6 mph - N/A   Clear
11:53 AM 55.0 °F - 25.0 °F 31% 30.46 in 10.0 mi Variable 3.5 mph - N/A   Clear
12:53 PM 57.9 °F - 25.0 °F 28% 30.41 in 10.0 mi East 4.6 mph - N/A   Clear
1:53 PM 59.0 °F - 25.0 °F 27% 30.39 in 10.0 mi Calm Calm - N/A   Clear
2:53 PM 60.1 °F - 26.1 °F 27% 30.35 in 10.0 mi Variable 5.8 mph - N/A   Clear
3:53 PM 61.0 °F - 26.1 °F 26% 30.35 in 10.0 mi South 4.6 mph - N/A   Clear
4:53 PM 59.0 °F - 26.1 °F 28% 30.33 in 10.0 mi South 8.1 mph - N/A   Clear
5:53 PM 53.1 °F - 27.0 °F 37% 30.33 in 10.0 mi South 6.9 mph - N/A   Clear
6:53 PM 46.9 °F - 27.0 °F 46% 30.34 in 10.0 mi South 8.1 mph - N/A   Clear
7:53 PM 48.0 °F - 27.0 °F 44% 30.32 in 10.0 mi SSE 9.2 mph - N/A   Clear
8:53 PM 48.0 °F - 27.0 °F 44% 30.26 in 10.0 mi Calm Calm - N/A   Clear
9:53 PM 46.9 °F - 27.0 °F 46% 30.23 in 10.0 mi Calm Calm - N/A   Clear
10:53 PM 46.9 °F - 26.1 °F 44% 30.19 in 10.0 mi South 5.8 mph - N/A   Clear
11:53 PM 46.0 °F 44.8 °F 25.0 °F 44% 30.16 in 10.0 mi Variable 3.5 mph - N/A   Clear